TimeAKDT,TemperatureF,Dew PointF,Humidity,Sea Level PressureIn,VisibilityMPH,Wind Direction,Wind SpeedMPH,Gust SpeedMPH,PrecipitationIn,Events,Conditions,WindDirDegrees,DateUTC
12:55 AM,33.3,31.6,94,30.05,-9999.0,NNW,23.0,26.5,N/A,,Mostly Cloudy,330,2012-10-07 08:55:00
1:24 AM,32.0,32.0,100,30.07,-9999.0,NNW,16.1,25.3,N/A,,Mostly Cloudy,340,2012-10-07 09:24:00
1:39 AM,32.0,32.0,100,30.08,-9999.0,NNW,21.9,28.8,N/A,Rain,Light Rain,340,2012-10-07 09:39:00
1:55 AM,32.5,31.6,96,30.09,-9999.0,NNW,18.4,28.8,N/A,Rain-Snow,Light Rain,340,2012-10-07 09:55:00
2:55 AM,32.4,31.3,96,30.11,-9999.0,North,24.2,-,N/A,,Mostly Cloudy,350,2012-10-07 10:55:00
3:09 AM,32.0,32.0,100,30.11,-9999.0,North,25.3,-,N/A,Rain-Snow,Light Rain,350,2012-10-07 11:09:00
3:24 AM,32.0,30.2,93,30.12,-9999.0,North,25.3,-,N/A,Rain-Snow,Light Rain,350,2012-10-07 11:24:00
3:55 AM,32.7,31.5,95,30.14,-9999.0,North,24.2,28.8,N/A,Rain-Snow,Light Rain,350,2012-10-07 11:55:00
4:55 AM,32.7,31.3,94,30.16,-9999.0,NNW,24.2,-,N/A,Rain,Light Rain Showers,340,2012-10-07 12:55:00
5:55 AM,32.9,30.6,91,30.20,-9999.0,NNW,19.6,-,N/A,,Mostly Cloudy,340,2012-10-07 13:55:00
6:55 AM,32.5,30.6,92,30.21,-9999.0,North,20.7,27.6,N/A,Rain,Light Rain Showers,350,2012-10-07 14:55:00
7:54 AM,32.0,30.2,93,30.24,-9999.0,NNW,17.3,24.2,N/A,Snow,Light Snow Showers,340,2012-10-07 15:54:00
7:55 AM,32.0,30.2,93,30.22,-9999.0,NNW,18.4,24.2,N/A,Snow,Light Snow Showers,340,2012-10-07 15:55:00
8:09 AM,32.0,30.2,93,30.24,-9999.0,North,19.6,27.6,N/A,Rain,Light Rain Showers,350,2012-10-07 16:09:00
8:55 AM,32.7,29.3,87,30.25,-9999.0,NNW,23.0,-,N/A,,Overcast,340,2012-10-07 16:55:00
9:55 AM,31.6,30.6,96,30.28,-9999.0,North,15.0,24.2,N/A,,Mostly Cloudy,360,2012-10-07 17:55:00
10:55 AM,32.5,29.8,90,30.30,-9999.0,NNW,20.7,-,N/A,,Mostly Cloudy,340,2012-10-07 18:55:00
11:55 AM,32.4,29.8,90,30.31,-9999.0,North,20.7,-,N/A,,Mostly Cloudy,350,2012-10-07 19:55:00
12:55 PM,32.5,30.2,91,30.32,-9999.0,North,23.0,-,N/A,,Mostly Cloudy,350,2012-10-07 20:55:00
1:55 PM,32.2,30.6,94,30.34,-9999.0,North,21.9,-,N/A,,Mostly Cloudy,360,2012-10-07 21:55:00
2:55 PM,32.5,30.9,94,30.35,-9999.0,North,20.7,-,N/A,,Mostly Cloudy,360,2012-10-07 22:55:00
3:55 PM,32.2,30.4,93,30.35,-9999.0,North,19.6,-,N/A,,Scattered Clouds,350,2012-10-07 23:55:00
4:55 PM,32.5,30.4,92,30.35,-9999.0,North,15.0,-,N/A,,Mostly Cloudy,360,2012-10-08 00:55:00
5:55 PM,32.5,30.2,91,30.34,-9999.0,North,18.4,-,N/A,,Mostly Cloudy,10,2012-10-08 01:55:00
6:55 PM,32.5,30.7,93,30.35,-9999.0,North,20.7,-,N/A,,Mostly Cloudy,10,2012-10-08 02:55:00
7:55 PM,32.2,30.7,94,30.35,-9999.0,North,21.9,-,N/A,,Mostly Cloudy,10,2012-10-08 03:55:00
8:55 PM,32.0,30.6,94,30.36,-9999.0,NNE,21.9,26.5,N/A,,Clear,20,2012-10-08 04:55:00
9:24 PM,32.0,30.2,93,30.36,-9999.0,NNE,24.2,-,N/A,,Clear,20,2012-10-08 05:24:00
9:39 PM,32.0,30.2,93,30.36,-9999.0,NNE,27.6,-,N/A,,Clear,20,2012-10-08 05:39:00
9:55 PM,32.0,32.0,100,30.37,-9999.0,NNE,27.6,32.2,N/A,,Mostly Cloudy,30,2012-10-08 05:55:00
10:55 PM,32.2,29.1,88,30.38,-9999.0,NNE,27.6,31.1,N/A,,Mostly Cloudy,30,2012-10-08 06:55:00
11:55 PM,31.8,29.7,92,30.39,-9999.0,NNE,27.6,34.5,N/A,,Mostly Cloudy,20,2012-10-08 07:55:00